Change the Weather History Date:

Monday, October 15, 2012

  Actual Average Record
Temperature  
Mean Temperature 64 °F -  
Max Temperature 70 °F 57 °F 75 °F (2014)
Min Temperature 57 °F 34 °F 24 °F (2002)
Degree Days  
Heating Degree Days 2    
Growing Degree Days 14 (Base 50)    
Moisture  
Dew Point 58 °F    
Average Humidity 83    
Maximum Humidity 100    
Minimum Humidity 68    
Precipitation  
Precipitation 0.56 in - - ()
Sea Level Pressure  
Sea Level Pressure 29.70 in    
Wind  
Wind Speed 8 mph (South)    
Max Wind Speed 16 mph    
Max Gust Speed 25 mph    
Visibility 9 miles    
Events Rain    
Averages and records for this station are not official NWS values.
T = Trace of Precipitation, MM = Missing Value Source: NWS Daily Summary

Daily Weather History Graph

Daily Weather History Graph

Search for Another Location

Airport or City:

Trip Planner

Search our weather history database for the weather conditions in past years. The results will help you decide how hot, cold, wet, or windy it might be!

Date:

Astronomy

Oct. 15, 2012 Rise Set
Actual Time 7:02 AM EDT 6:06 PM EDT
Civil Twilight 6:34 AM EDT 6:34 PM EDT
Nautical Twilight 6:01 AM EDT 7:07 PM EDT
Astronomical Twilight 5:28 AM EDT 7:39 PM EDT
Moon 7:10 AM EDT (10/15) 6:02 PM EDT (10/15)
Length of Visible Light 12h 00m
Length of Day
11h 03m
New Moon, 0% of the Moon is Illuminated
Oct 15
New Moon
Oct 21
First Quarter
Oct 29
Full
Nov 6
Last Quarter
Nov 13
New

Hourly Weather History & Observations

Time (EDT) Temp. Dew Point Humidity Pressure Visibility Wind Dir Wind Speed Gust Speed Precip Events Conditions
12:50 AM 59.0 °F 55.4 °F 88% 29.91 in 10.0 mi Variable 5.8 mph - N/A   Mostly Cloudy
12:52 AM 59.0 °F 55.0 °F 87% 29.91 in 10.0 mi SSE 4.6 mph - N/A   Mostly Cloudy
1:52 AM 59.0 °F 55.0 °F 87% 29.90 in 10.0 mi South 4.6 mph - N/A   Overcast
2:52 AM 60.1 °F 55.0 °F 83% 29.87 in 10.0 mi SSE 4.6 mph - N/A   Overcast
3:52 AM 60.1 °F 55.9 °F 86% 29.85 in 10.0 mi South 5.8 mph - N/A   Overcast
4:52 AM 60.1 °F 55.9 °F 86% 29.83 in 10.0 mi SSE 6.9 mph - N/A   Overcast
5:52 AM 60.1 °F 57.0 °F 90% 29.80 in 10.0 mi South 12.7 mph 18.4 mph N/A   Mostly Cloudy
6:52 AM 61.0 °F 57.0 °F 87% 29.78 in 10.0 mi South 12.7 mph 19.6 mph N/A   Overcast
7:52 AM 63.0 °F 57.9 °F 84% 29.77 in 10.0 mi South 15.0 mph - N/A   Overcast
8:52 AM 64.0 °F 57.9 °F 80% 29.77 in 10.0 mi South 16.1 mph 21.9 mph N/A   Overcast
9:52 AM 64.9 °F 57.9 °F 78% 29.76 in 10.0 mi SSW 15.0 mph 19.6 mph N/A   Overcast
10:52 AM 66.0 °F 57.9 °F 75% 29.74 in 10.0 mi South 13.8 mph 25.3 mph N/A   Mostly Cloudy
11:52 AM 66.9 °F 59.0 °F 76% 29.73 in 10.0 mi SSW 9.2 mph 24.2 mph N/A   Overcast
12:52 PM 69.1 °F 59.0 °F 70% 29.70 in 10.0 mi SSW 11.5 mph 19.6 mph N/A   Overcast
1:21 PM 69.8 °F 59.0 °F 68% 29.69 in 10.0 mi SSW 11.5 mph - N/A   Overcast
1:31 PM 69.8 °F 59.0 °F 68% 29.68 in 10.0 mi SSW 11.5 mph - N/A   Mostly Cloudy
1:39 PM 69.8 °F 59.0 °F 68% 29.68 in 10.0 mi South 13.8 mph - N/A   Overcast
1:47 PM 69.8 °F 59.0 °F 68% 29.68 in 10.0 mi South 11.5 mph - N/A   Overcast
2:52 PM 70.0 °F 59.0 °F 68% 29.66 in 10.0 mi South 11.5 mph - N/A   Overcast
3:43 PM 68.0 °F 60.8 °F 78% 29.65 in 10.0 mi South 10.4 mph - 0.00 in   Overcast
3:52 PM 68.0 °F 60.1 °F 76% 29.65 in 10.0 mi South 8.1 mph - 0.00 in   Overcast
4:03 PM 68.0 °F 60.8 °F 78% 29.65 in 10.0 mi South 10.4 mph - N/A   Overcast
4:32 PM 68.0 °F 59.0 °F 73% 29.63 in 10.0 mi South 5.8 mph - N/A   Overcast
4:41 PM 66.2 °F 59.0 °F 78% 29.63 in 10.0 mi South 6.9 mph - N/A   Overcast
4:52 PM 66.9 °F 59.0 °F 76% 29.63 in 10.0 mi South 8.1 mph - 0.00 in Rain Light Rain
5:09 PM 66.2 °F 60.8 °F 83% 29.64 in 10.0 mi South 8.1 mph - 0.00 in Rain Light Rain
5:28 PM 66.2 °F 60.8 °F 83% 29.63 in 9.0 mi South 5.8 mph - 0.00 in Rain Light Rain
5:52 PM 64.0 °F 60.1 °F 87% 29.62 in 10.0 mi South 6.9 mph - 0.02 in   Overcast
6:47 PM 62.6 °F 60.8 °F 94% 29.63 in 2.5 mi West 10.4 mph - 0.12 in Rain Heavy Rain
6:52 PM 62.1 °F 60.1 °F 93% 29.62 in 1.2 mi SW 13.8 mph 19.6 mph 0.24 in Rain Heavy Rain
7:01 PM 60.8 °F 59.0 °F 94% 29.63 in 1.8 mi SSW 9.2 mph 21.9 mph 0.16 in Rain Heavy Rain
7:08 PM 62.6 °F 59.0 °F 88% 29.63 in 3.0 mi South 9.2 mph - 0.18 in Rain Rain
7:15 PM 62.6 °F 59.0 °F 88% 29.63 in 6.0 mi South 8.1 mph - 0.19 in Rain Rain
7:52 PM 60.1 °F 59.0 °F 96% 29.64 in 7.0 mi SSE 6.9 mph - 0.25 in Rain Rain
8:52 PM 60.1 °F 57.9 °F 93% 29.63 in 10.0 mi South 6.9 mph - 0.04 in   Overcast
9:52 PM 59.0 °F 57.9 °F 96% 29.63 in 10.0 mi South 5.8 mph - 0.00 in   Overcast
10:26 PM 57.2 °F 57.2 °F 100% 29.62 in 10.0 mi Calm Calm - N/A   Mostly Cloudy
10:52 PM 57.9 °F 57.0 °F 97% 29.63 in 6.0 mi Calm Calm - N/A   Overcast
11:52 PM 57.9 °F 57.0 °F 97% 29.63 in 6.0 mi West 5.8 mph - 0.01 in Rain Light Rain